Overview Statistics Trail Chart Weather Telemetry Raw packets
 

This is the latest recevied weather packets stored in our database for station/object W4UWO. If no packets are shown the sender has not sent any weather packets the latest 10 day(s).

<< 46 47 48 49 50 51 52 >>
Time Temp. Humidity Pressure Rain* Wind** Luminosity Snow
1788308291 32.78° C 49% 1018.3 hPa 0 mm - 3 W/m² -
1788307986 33.33° C 46% 1018.1 hPa 0 mm - 7 W/m² -
1788307686 33.89° C 46% 1018.3 hPa 0 mm - 11 W/m² -
1788307381 33.89° C 46% 1018.1 hPa 0 mm - 15 W/m² -
1788307076 34.44° C 45% 1018.4 hPa 0 mm - 19 W/m² -
1788306771 35° C 43% 1018.3 hPa 0 mm - 23 W/m² -
1788306470 35° C 41% 1018.2 hPa 0 mm - 28 W/m² -
1788306165 35° C 41% 1018.4 hPa 0 mm - 32 W/m² -
1788305860 35° C 40% 1018.3 hPa 0 mm - 36 W/m² -
1788305556 35.56° C 40% 1018.4 hPa 0 mm - 46 W/m² -
1788305256 35.56° C 40% 1018.4 hPa 0 mm - 53 W/m² -
1788304952 36.11° C 39% 1018.3 hPa 0 mm - 62 W/m² -
1788304670 36.11° C 39% 1018.3 hPa 0 mm - 71 W/m² -
1788304344 35.56° C 39% 1018.4 hPa 0 mm - 81 W/m² -
1788304040 36.11° C 39% 1018.5 hPa 0 mm - 92 W/m² -
1788303740 36.11° C 38% 1018.4 hPa 0 mm - 105 W/m² -
1788303435 36.11° C 38% 1018.4 hPa 0 mm - 121 W/m² -
1788303139 36.11° C 38% 1018.3 hPa 0 mm - 131 W/m² -
1788302831 36.11° C 37% 1018.3 hPa 0 mm - 144 W/m² -
1788302527 35.56° C 39% 1018.3 hPa 0 mm - 158 W/m² -
1788302222 35.56° C 39% 1018.1 hPa 0 mm - 174 W/m² -
1788301917 36.67° C 37% 1018.2 hPa 0 mm - 190 W/m² -
1788301613 37.22° C 37% 1018.3 hPa 0 mm - 206 W/m² -
1788301309 36.67° C 37% 1018.1 hPa 0 mm - 224 W/m² -
1788301005 36.67° C 36% 1018.2 hPa 0 mm - 240 W/m² -

* Rain latest hour (hover to see other rain measurements)
** Current wind speed in m/s (hover to see current wind gust speed)